Location: Lecco
(45.8566°N, 9.3977°E)
Time: 06:34:51
(UTC+02:00)

Altair - Pass Details

Date: 15 August 2020
Orbit: 1501 x 1682 km, 47.2° (Epoch: 25 September)

Event Time Altitude Azimuth Distance (km) Brightness Sun altitude
Rises 11:15:36 0° 283° (WNW) 4,653 9.7 47.7°
Reaches altitude 10° 11:22:46 10° 246° (WSW) 3,648 9.4 48.7°
Maximum altitude 11:23:52 10° 239° (WSW) 3,626 9.5 48.8°
Drops below altitude 10° 11:24:58 10° 231° (SW) 3,645 9.5 49.0°
Sets 11:32:09 0° 194° (SSW) 4,632 10.3 49.9°
